Weather History for Greenwood, MS

Change the Weather History Date:

Saturday, December 21, 2013

  Actual Average Record
Temperature  
Mean Temperature 70 °F 45 °F  
Max Temperature 80 °F 55 °F 80 °F (2013)
Min Temperature 59 °F 35 °F 11 °F (1989)
Degree Days  
Heating Degree Days 0 20  
Month to date heating degree days 396 387  
Since 1 July heating degree days 963 855  
Cooling Degree Days 5 0  
Month to date cooling degree days 11 0  
Year to date cooling degree days 2109 2159  
Growing Degree Days 20 (Base 50)    
Moisture  
Dew Point 63 °F    
Average Humidity 81    
Maximum Humidity 100    
Minimum Humidity 62    
Precipitation  
Precipitation 0.97 in 0.17 in 1.84 in (1990)
Month to date precipitation 4.37 4.00  
Year to date precipitation 58.07 50.12  
Sea Level Pressure  
Sea Level Pressure 29.71 in    
Wind  
Wind Speed 18 mph (SSW)    
Max Wind Speed 35 mph    
Max Gust Speed 50 mph    
Visibility 8 miles    
Events Rain    
T = Trace of Precipitation, MM = Missing Value Source: NWS Daily Summary

Daily Weather History Graph

Daily Weather History Graph

Search for Another Location

Airport:

Trip Planner

Search our weather history database for the weather conditions in past years. The results will help you decide how hot, cold, wet, or windy it might be!

Date:

Astronomy

Dec. 21, 2013 Rise Set
Actual Time 7:00 AM CST 4:56 PM CST
Civil Twilight 6:33 AM CST 5:24 PM CST
Nautical Twilight 6:01 AM CST 5:55 PM CST
Astronomical Twilight 5:31 AM CST 6:25 PM CST
Moon 9:02 PM CST (12/21) 9:36 AM CST (12/21)
Length of Visible Light 10h 51m
Length of Day
9h 55m
Waning Gibbous, 84% of the Moon is Illuminated
Dec 21
Waning Gibbous
Dec 25
Last Quarter
Jan 1
New
Jan 7
First Quarter
Jan 15
Full

Hourly Weather History & Observations

Time (CST) Temp. Dew Point Humidity Pressure Visibility Wind Dir Wind Speed Gust Speed Precip Events Conditions
12:53 AM 69.1 °F 63.0 °F 81% 29.83 in 10.0 mi South 21.9 mph 27.6 mph N/A   Overcast
1:53 AM 69.1 °F 62.1 °F 78% 29.82 in 10.0 mi South 17.3 mph - N/A   Overcast
2:53 AM 69.1 °F 62.1 °F 78% 29.81 in 10.0 mi South 20.7 mph 33.4 mph N/A   Mostly Cloudy
3:09 AM 68.0 °F 62.1 °F 81% 29.82 in 10.0 mi South 18.4 mph 31.1 mph N/A   Mostly Cloudy
3:53 AM 68.0 °F 62.1 °F 81% 29.79 in 10.0 mi South 18.4 mph 26.5 mph N/A   Overcast
4:53 AM 69.1 °F 62.1 °F 78% 29.78 in 10.0 mi South 20.7 mph - N/A   Overcast
5:53 AM 69.1 °F 63.0 °F 81% 29.76 in 10.0 mi South 15.0 mph - N/A   Overcast
6:53 AM 69.1 °F 62.1 °F 78% 29.75 in 10.0 mi South 16.1 mph - N/A   Mostly Cloudy
7:20 AM 68.0 °F 62.1 °F 81% 29.75 in 10.0 mi South 13.8 mph - N/A   Scattered Clouds
7:41 AM 69.1 °F 62.1 °F 78% 29.75 in 10.0 mi South 15.0 mph 24.2 mph N/A   Mostly Cloudy
7:53 AM 69.1 °F 62.1 °F 78% 29.74 in 10.0 mi South 18.4 mph 21.9 mph N/A   Mostly Cloudy
8:43 AM 70.0 °F 63.0 °F 78% 29.75 in 10.0 mi South 15.0 mph - N/A   Overcast
8:53 AM 70.0 °F 63.0 °F 78% 29.75 in 10.0 mi South 15.0 mph 25.3 mph N/A   Mostly Cloudy
9:53 AM 73.0 °F 63.0 °F 71% 29.74 in 10.0 mi South 18.4 mph 31.1 mph N/A   Mostly Cloudy
10:53 AM 73.9 °F 64.0 °F 71% 29.72 in 10.0 mi South 21.9 mph 29.9 mph N/A   Overcast
11:53 AM 73.9 °F 64.0 °F 71% 29.68 in 10.0 mi South 18.4 mph 26.5 mph N/A   Overcast
12:53 PM 77.0 °F 64.0 °F 64% 29.63 in 10.0 mi South 19.6 mph 34.5 mph N/A   Overcast
1:53 PM 79.0 °F 64.0 °F 60% 29.60 in 10.0 mi South 20.7 mph 39.1 mph N/A   Mostly Cloudy
2:53 PM 78.1 °F 64.0 °F 62% 29.57 in 10.0 mi South 27.6 mph 39.1 mph N/A   Overcast
3:53 PM 78.1 °F 64.0 °F 62% 29.57 in 10.0 mi South 27.6 mph 36.8 mph N/A   Overcast
4:53 PM 72.0 °F 66.9 °F 84% 29.58 in 10.0 mi South 16.1 mph 26.5 mph 0.01 in   Overcast
5:53 PM 73.9 °F 66.0 °F 76% 29.58 in 10.0 mi South 21.9 mph 36.8 mph 0.00 in   Overcast
6:51 PM 64.4 °F 62.6 °F 94% 29.64 in 2.5 mi WSW 12.7 mph 43.7 mph 0.07 in Rain Heavy Rain
6:53 PM 64.9 °F 62.1 °F 90% 29.63 in 1.8 mi SW 12.7 mph 39.1 mph 0.13 in Rain Heavy Rain
6:57 PM 64.9 °F 62.1 °F 90% 29.68 in 1.2 mi SW 19.6 mph 25.3 mph 0.10 in Rain Heavy Rain
7:17 PM 64.0 °F 63.0 °F 96% 29.66 in 3.0 mi SSW 16.1 mph 24.2 mph 0.41 in Rain Rain
7:30 PM 64.0 °F 63.0 °F 96% 29.66 in 5.0 mi SSW 13.8 mph - 0.43 in Rain Rain
7:53 PM 64.0 °F 62.1 °F 93% 29.69 in 3.0 mi SW 10.4 mph - 0.51 in Rain Rain
7:58 PM 64.0 °F 63.0 °F 96% 29.68 in 3.0 mi WSW 6.9 mph - 0.02 in Rain Rain
8:00 PM 64.0 °F 62.1 °F 93% 29.69 in 2.5 mi WSW 8.1 mph - 0.04 in Rain Heavy Rain
8:26 PM 63.0 °F 62.1 °F 97% 29.67 in 5.0 mi SSW 8.1 mph - 0.13 in Rain Light Rain
8:35 PM 63.0 °F 62.1 °F 97% 29.71 in 6.0 mi SSW 11.5 mph - 0.15 in Rain Rain
8:53 PM 63.0 °F 62.1 °F 97% 29.70 in 6.0 mi South 11.5 mph - 0.20 in Rain Light Rain
9:53 PM 62.1 °F 60.1 °F 93% 29.72 in 7.0 mi South 11.5 mph - 0.06 in Rain Rain
10:53 PM 61.0 °F 57.0 °F 87% 29.74 in 10.0 mi SSW 10.4 mph - 0.03 in Rain Light Rain
11:53 PM 60.1 °F 55.9 °F 86% 29.78 in 10.0 mi South 11.5 mph - 0.02 in Rain Light Rain